This demonstration page uses our WeatherBlox Daily Observations layout. Learn more.

Left ArrowRight Arrow

Hourly Observations for April 20, 2018

Temp ( °F °C ) Dew Point ( °F °C ) Humidity (%) Winds ( mph kmh ) Pressure ( in mb ) Visibility ( mi km ) Precip ( " mm )
12:56 am 00:56 Clear 40 4.4 27 -2.8 60 60 SE 9 15 30.36 1028 10 16 0.00 0.00
1:56 am 01:56 Clear 39 3.9 27 -2.8 62 62 SE 9 15 30.35 1028 10 16 0.00 0.00
2:56 am 02:56 Clear 38 3.3 27 -2.8 65 65 SE 9 15 30.33 1027 10 16 0.00 0.00
3:56 am 03:56 Clear 35 1.7 27 -2.8 72 72 SSE 9 15 30.33 1027 10 16 0.00 0.00
4:56 am 04:56 Clear 37 2.8 28 -2.2 70 70 SSE 7 11 30.33 1027 10 16 0.00 0.00
5:56 am 05:56 Clear 35 1.7 27 -2.8 72 72 SE 8 13 30.32 1027 10 16 0.00 0.00
6:56 am 06:56 Mostly Cloudy 36 2.2 28 -2.2 73 73 ESE 8 13 30.32 1027 10 16 0.00 0.00
7:56 am 07:56 Mostly Cloudy 39 3.9 30 -1.1 70 70 SE 9 15 30.32 1027 10 16 0.00 0.00
8:56 am 08:56 Cloudy 43 6.1 31 -0.6 63 63 SSE 13 20 30.32 1027 10 16 0.00 0.00
9:56 am 09:56 Cloudy 45 7.2 32 0 61 61 SSE 15 24 30.33 1027 10 16 0.00 0.00
10:56 am 10:56 Cloudy 47 8.3 32 0 56 56 SSE 15 24 30.32 1027 10 16 0.00 0.00
11:56 am 11:56 Partly Cloudy 50 10 32 0 50 50 SSE 17 28 30.30 1026 10 16 0.00 0.00
12:56 pm 12:56 Mostly Cloudy 52 11.1 32 0 47 47 SE 17 28 30.27 1025 10 16 0.00 0.00
1:56 pm 13:56 Mostly Sunny 54 12.2 31 -0.6 42 42 SE 17 28 30.24 1024 10 16 0.00 0.00
2:56 pm 14:56 Cloudy 54 12.2 32 0 43 43 SSE 10 17 30.28 1026 10 16 0.00 0.00
3:56 pm 15:56 Mostly Cloudy 54 12.2 32 0 43 43 SSE 10 17 30.27 1025 10 16 0.00 0.00
4:56 pm 16:56 Partly Cloudy 53 11.7 31 -0.6 43 43 SSE 10 17 30.24 1024 10 16 0.00 0.00
5:56 pm 17:56 Cloudy 52 11.1 33 0.6 49 49 SSE 5 7 30.27 1025 10 16 0.00 0.00
6:56 pm 18:56 Cloudy 50 10 34 1.1 54 54 Calm 30.28 1026 10 16 0.00 0.00
7:56 pm 19:56 Cloudy 48 8.9 35 1.7 61 61 E 8 13 30.28 1025 10 16 0.00 0.00
8:56 pm 20:56 Cloudy 46 7.8 39 3.9 77 77 E 10 17 30.25 1024 10 16 0.00 0.03
9:56 pm 21:56 Cloudy 45 7.2 39 3.9 80 80 E 7 11 30.26 1025 10 16 0.00 0.00
10:56 pm 22:56 Cloudy with Light Rain 46 7.8 38 3.3 73 73 SE 15 24 30.29 1026 10 16 0.01 0.25
11:29 pm 23:29 Cloudy with Rain 43 6 39 4 87 87 ESE 22 35 30.33 1027 6 10 0.08 2.03
11:56 pm 23:56 Cloudy with Light Rain 42 5.6 39 3.9 89 89 E 14 22 30.28 1026 10 16 0.15 3.81

Powered by AerisWeather